Location: Calvatone
(45.1167°N, 10.4333°E)
Time: 10:40:03
(UTC+00:00)

Lacrosse 5 rocket - Pass Details

Date: 28 January 2023
Orbit: 455 x 612 km, 57.0° (Epoch: 29 March)

Event Time Altitude Azimuth Distance (km) Brightness Sun altitude
Rises 17:09:38 0° 300° (WNW) 2,472 5.4 -9.1°
Reaches altitude 10° 17:12:48 10° 331° (NNW) 1,604 3.9 -9.6°
Maximum altitude 17:14:27 13° 358° (N) 1,456 3.3 -9.9°
Drops below altitude 10° 17:16:06 10° 26° (NNE) 1,620 3.3 -10.2°
Enters shadow 17:16:43 - 34° (NNE) 1,748 3.4 -10.3°
